User: anonymous   Login
Location: El Limón
(10.3059°N, 67.6321°W)
Time: 16:44:21
(UTC+00:00)
Language:

H-2A R/B - Orbit

View from above orbital plane
View from above orbital plane
View from above satellite
View from above satellite

Ground track
Ground track

The orbit data is extracted from the following two-line orbital elements,

1 27601U 02056E   24165.94307233  .00000384  00000-0  15177-3 0  9997
2 27601  98.2296 143.1734 0069931 250.8773 167.7451 14.32832973123321
Epoch (UTC): 13 June 2024 22:38:01
Eccentricity: 0.0069931
inclination: 98.2296°
perigee height: 732 km
apogee height: 832 km
right ascension of ascending node: 143.1734°
argument of perigee: 250.8773°
revolutions per day: 14.32832973
mean anomaly at epoch: 167.7451°
orbit number at epoch: 12332

The dashed part of the orbit path shows where the satellite is in the earth's shadow,  

DLR